GW6773 Weather Reports


time (UTC)temp
C
wind
direction
speed
KPH
gust
KPH
rain 1hr
cm
rain 24hr
cm
rain mn
cm
humidity
%
barometer
mb
20260506145017 23 77 0.0 3.2 0.00 0.00 0.00 91 1025.9
20260506144513 23 60 0.0 0.0 0.00 0.00 0.00 91 1025.8
20260506144011 23 55 0.0 1.6 0.00 0.00 0.00 91 1025.9
20260506143508 23 36 1.6 3.2 0.00 0.00 0.00 91 1025.9
20260506143007 23 55 1.6 1.6 0.00 0.00 0.00 91 1025.9
20260506142504 23 58 0.0 1.6 0.00 0.00 0.00 91 1025.9
20260506142002 23 80 1.6 1.6 0.00 0.00 0.00 90 1025.6
20260506141459 23 76 0.0 1.6 0.00 0.00 0.00 90 1025.4
20260506140958 23 71 0.0 1.6 0.00 0.00 0.00 91 1025.3
20260506140454 23 73 3.2 4.8 0.00 0.00 0.00 90 1025.4
20260506135951 23 40 1.6 1.6 0.00 0.00 0.00 90 1025.4
20260506135448 23 55 0.0 1.6 0.00 0.00 0.00 90 1025.2
20260506134944 23 67 1.6 4.8 0.00 0.00 0.00 90 1025.1
20260506134440 23 61 0.0 3.2 0.00 0.00 0.00 89 1024.8
20260506133937 23 75 3.2 6.4 0.00 0.00 0.00 89 1024.8
20260506133434 23 69 1.6 3.2 0.00 0.00 0.00 89 1024.8
20260506132931 23 138 1.6 3.2 0.00 0.00 0.00 89 1024.6
20260506132428 24 77 3.2 4.8 0.00 0.00 0.00 89 1024.8
20260506131926 24 95 0.0 3.2 0.00 0.00 0.00 88 1024.7
20260506131422 24 3 1.6 1.6 0.00 0.00 0.00 88 1024.8
20260506130919 24 80 1.6 1.6 0.00 0.00 0.00 89 1024.7
20260506130415 24 71 0.0 1.6 0.00 0.00 0.00 89 1024.6
20260506125914 23 93 1.6 4.8 0.00 0.00 0.00 89 1024.6
20260506125412 23 81 1.6 4.8 0.00 0.00 0.00 90 1024.6
20260506124910 23 354 4.8 6.4 0.00 0.00 0.00 89 1024.6
20260506124407 23 60 1.6 3.2 0.00 0.00 0.00 90 1024.7
20260506123904 23 45 1.6 3.2 0.00 0.00 0.00 90 1024.8
20260506123402 23 76 0.0 0.0 0.00 0.00 0.00 90 1024.8
20260506122859 23 79 0.0 3.2 0.00 0.00 0.00 90 1024.6
20260506122356 23 182 1.6 3.2 0.00 0.00 0.00 90 1024.7
20260506121855 23 84 0.0 1.6 0.00 0.00 0.00 90 1024.5
20260506121351 23 208 0.0 3.2 0.00 0.00 0.00 90 1024.6
20260506120848 23 136 0.0 1.6 0.00 0.00 0.00 90 1024.5
20260506120346 23 40 1.6 1.6 0.00 0.00 0.00 90 1024.4
20260506115843 23 150 1.6 3.2 0.00 0.00 0.00 90 1024.4
20260506115341 23 67 0.0 1.6 0.00 0.00 0.00 90 1024.4
20260506114839 23 62 0.0 4.8 0.00 0.00 0.00 90 1024.3
20260506114336 23 207 3.2 3.2 0.00 0.00 0.00 90 1024.4
20260506113835 23 180 1.6 3.2 0.00 0.00 0.00 90 1024.3
20260506113332 23 95 1.6 3.2 0.00 0.00 0.00 90 1024.3
20260506112828 23 65 0.0 3.2 0.00 0.00 0.00 90 1024.3
20260506112326 23 78 1.6 3.2 0.00 0.00 0.00 90 1024.3
20260506111823 23 81 0.0 1.6 0.00 0.00 0.00 90 1024.3
20260506111321 23 44 0.0 1.6 0.00 0.00 0.00 90 1024.3
20260506110818 23 87 0.0 3.2 0.00 0.00 0.00 90 1024.3
20260506110315 23 84 0.0 0.0 0.00 0.00 0.00 90 1024.1
20260506105812 23 49 0.0 1.6 0.00 0.00 0.00 90 1024.0
20260506105309 23 64 1.6 3.2 0.00 0.00 0.00 90 1024.0
20260506104806 23 154 1.6 3.2 0.00 0.00 0.00 89 1024.1
20260506104304 23 44 1.6 1.6 0.00 0.00 0.00 89 1024.1
20260506103801 23 58 0.0 3.2 0.00 0.00 0.00 89 1024.0
20260506103259 23 72 1.6 3.2 0.00 0.00 0.00 89 1024.0
20260506102756 23 74 0.0 3.2 0.00 0.00 0.00 89 1024.3
20260506102254 23 83 1.6 1.6 0.00 0.00 0.00 89 1024.3
20260506101751 23 72 0.0 1.6 0.00 0.00 0.00 89 1024.0
20260506101247 23 185 0.0 3.2 0.00 0.00 0.00 89 1023.9
20260506100745 23 62 0.0 3.2 0.00 0.00 0.00 89 1024.0
20260506100243 23 58 0.0 0.0 0.00 0.00 0.00 89 1024.0
20260506095741 23 52 0.0 4.8 0.00 0.00 0.00 89 1023.9
20260506095238 23 148 3.2 6.4 0.00 0.00 0.00 89 1023.9
20260506094734 23 64 0.0 4.8 0.00 0.00 0.00 89 1023.8
20260506094233 23 124 1.6 3.2 0.00 0.00 0.00 89 1023.8
20260506093731 23 160 1.6 3.2 0.00 0.00 0.00 88 1023.7
20260506093228 23 156 0.0 4.8 0.00 0.00 0.00 88 1023.7
20260506092726 24 49 0.0 3.2 0.00 0.00 0.00 88 1023.6
20260506092223 24 94 0.0 3.2 0.00 0.00 0.00 88 1023.5
20260506091720 24 13 1.6 3.2 0.00 0.00 0.00 88 1023.4
20260506091218 24 203 1.6 6.4 0.00 0.00 0.00 88 1023.5
20260506090715 24 269 3.2 6.4 0.00 0.00 0.00 87 1023.7
20260506090212 24 132 1.6 3.2 0.00 0.00 0.00 87 1023.7
20260506085709 24 99 1.6 3.2 0.00 0.00 0.00 87 1023.9
20260506085205 24 201 1.6 4.8 0.00 0.00 0.00 87 1023.9
20260506084702 24 93 0.0 1.6 0.00 0.00 0.00 87 1023.9
20260506084158 24 195 1.6 4.8 0.00 0.00 0.00 87 1023.9
20260506083655 24 30 3.2 3.2 0.00 0.00 0.00 87 1023.8
20260506083153 24 101 1.6 3.2 0.00 0.00 0.00 87 1023.8
20260506082650 24 51 0.0 1.6 0.00 0.00 0.00 86 1023.8
20260506082150 24 71 1.6 3.2 0.00 0.00 0.00 86 1023.6
20260506081649 24 78 0.0 3.2 0.00 0.00 0.00 86 1023.8
20260506081146 24 234 1.6 4.8 0.00 0.00 0.00 86 1023.6
20260506080644 24 103 1.6 4.8 0.00 0.00 0.00 86 1023.6
20260506080140 24 130 1.6 3.2 0.00 0.00 0.00 86 1023.9
20260506073124 24 91 3.2 3.2 0.00 0.00 0.00 86 1023.9
20260506072621 24 129 1.6 1.6 0.00 0.00 0.00 86 1024.1
20260506072119 24 257 3.2 4.8 0.00 0.00 0.00 86 1024.1
20260506071616 24 339 4.8 9.7 0.00 0.00 0.00 86 1024.0
20260506071114 24 48 0.0 3.2 0.00 0.00 0.00 86 1024.3
20260506070611 24 183 0.0 1.6 0.00 0.00 0.00 86 1024.1
20260506070108 24 140 1.6 9.7 0.00 0.00 0.00 86 1024.4
20260506062045 25 114 3.2 4.8 0.00 0.00 0.00 85 1024.7
20260506061541 25 112 1.6 4.8 0.00 0.00 0.00 85 1024.6
20260506061038 25 57 0.0 3.2 0.00 0.00 0.00 85 1024.5
20260506060537 25 205 3.2 11.3 0.00 0.00 0.00 85 1024.5
20260506051006 25 133 3.2 3.2 0.00 0.00 0.00 84 1024.5
20260506050503 25 98 1.6 4.8 0.00 0.00 0.00 84 1024.3
20260506044953 25 31 3.2 4.8 0.00 0.00 0.00 84 1024.5
20260506044452 25 148 0.0 9.7 0.00 0.00 0.00 84 1024.4
20260506043948 25 177 1.6 4.8 0.00 0.00 0.00 84 1024.6
20260506043445 25 74 1.6 6.4 0.00 0.00 0.00 83 1024.5
20260506042943 25 160 3.2 3.2 0.00 0.00 0.00 83 1024.5
20260506042443 25 124 3.2 4.8 0.00 0.00 0.00 83 1024.4
20260506041940 25 359 1.6 3.2 0.00 0.00 0.00 83 1024.4
20260506041438 25 144 4.8 6.4 0.00 0.00 0.00 83 1024.3
20260506040935 25 95 4.8 6.4 0.00 0.00 0.00 83 1024.3
20260506040432 25 142 3.2 4.8 0.00 0.00 0.00 83 1024.0
20260506035928 25 49 3.2 6.4 0.00 0.00 0.00 83 1023.9
20260506035426 25 345 1.6 3.2 0.00 0.00 0.00 83 1024.1
20260506034922 25 83 3.2 9.7 0.00 0.00 0.00 83 1024.1
20260506034420 25 110 3.2 4.8 0.00 0.00 0.00 83 1024.0
20260506033916 25 11 3.2 3.2 0.00 0.00 0.00 83 1023.8
20260506033414 25 75 1.6 3.2 0.00 0.00 0.00 83 1023.6
20260506032910 25 71 0.0 4.8 0.00 0.00 0.00 83 1023.6
20260506032408 25 156 1.6 6.4 0.00 0.00 0.00 83 1023.6
20260506031904 25 139 1.6 9.7 0.00 0.00 0.00 83 1023.5
20260506031401 25 164 3.2 4.8 0.00 0.00 0.00 82 1023.5
20260506030859 25 146 1.6 11.3 0.00 0.00 0.00 82 1023.4
20260506030357 25 184 1.6 4.8 0.00 0.00 0.00 82 1023.3
20260506025853 26 76 1.6 3.2 0.00 0.00 0.00 81 1023.2
20260506025350 26 78 1.6 3.2 0.00 0.00 0.00 81 1023.2
20260506024847 26 48 3.2 3.2 0.00 0.00 0.00 81 1023.1
20260506024344 26 49 3.2 4.8 0.00 0.00 0.00 81 1023.0
20260506023840 26 21 1.6 3.2 0.00 0.00 0.00 80 1022.9
20260506023337 26 80 3.2 4.8 0.00 0.00 0.00 80 1022.7
20260506022834 26 88 1.6 4.8 0.00 0.00 0.00 79 1022.8
20260506022332 26 99 0.0 4.8 0.00 0.00 0.00 79 1022.9
20260506021830 26 169 1.6 1.6 0.00 0.00 0.00 78 1022.7
20260506021326 27 162 1.6 3.2 0.00 0.00 0.00 78 1022.4
20260506020822 27 93 3.2 6.4 0.00 0.00 0.00 77 1022.4
20260506020321 27 83 4.8 6.4 0.00 0.00 0.00 77 1022.5
20260506015818 27 83 3.2 4.8 0.00 0.00 0.00 76 1022.3
20260506015315 27 49 1.6 3.2 0.00 0.00 0.00 76 1022.3
20260506014812 27 358 1.6 4.8 0.00 0.00 0.00 75 1022.3
20260506014309 27 161 3.2 4.8 0.00 0.00 0.00 74 1022.4
20260506013806 28 91 1.6 4.8 0.00 0.00 0.00 73 1022.1
20260506013303 28 323 3.2 9.7 0.00 0.00 0.00 71 1022.0
20260506012759 28 94 3.2 4.8 0.00 0.00 0.00 71 1022.1
20260506012256 28 24 1.6 3.2 0.00 0.00 0.00 70 1022.0
20260506011754 28 218 1.6 4.8 0.00 0.00 0.00 69 1022.0
20260506011250 28 69 1.6 1.6 0.00 0.00 0.00 68 1022.0
20260506010748 28 54 0.0 1.6 0.00 0.00 0.00 68 1021.9
20260506010245 29 72 0.0 6.4 0.00 0.00 0.00 67 1021.8
20260506005742 29 77 0.0 3.2 0.00 0.00 0.00 67 1021.7
20260506005239 29 49 0.0 1.6 0.00 0.00 0.00 67 1021.7
20260506004735 29 57 0.0 3.2 0.00 0.00 0.00 66 1021.8
20260506004233 29 80 1.6 1.6 0.00 0.00 0.00 66 1021.8
20260506003728 29 173 3.2 3.2 0.00 0.00 0.00 66 1021.7
20260506003225 30 69 0.0 1.6 0.00 0.00 0.00 66 1021.6
20260506002721 30 101 1.6 4.8 0.00 0.00 0.00 65 1021.6
20260506002217 30 100 1.6 1.6 0.00 0.00 0.00 65 1021.5
20260506001713 30 88 0.0 3.2 0.00 0.00 0.00 65 1021.5
20260506001211 30 68 0.0 1.6 0.00 0.00 0.00 65 1021.5
20260506000708 30 102 1.6 4.8 0.00 0.00 0.00 64 1021.5
20260506000205 30 31 1.6 3.2 0.00 0.00 0.00 64 1021.4
20260505235703 30 114 1.6 4.8 0.00 0.00 0.00 64 1021.5
20260505235200 30 68 1.6 1.6 0.00 0.00 0.00 63 1021.3
20260505234657 30 70 0.0 3.2 0.00 0.00 0.00 63 1021.4
20260505234154 30 67 1.6 4.8 0.00 0.00 0.00 63 1021.2
20260505233650 30 137 3.2 9.7 0.00 0.00 0.00 64 1021.3
20260505233148 30 163 3.2 9.7 0.00 0.00 0.00 63 1021.2
20260505232646 30 242 3.2 16.1 0.00 0.00 0.00 62 1021.1
20260505232143 31 155 3.2 6.4 0.00 0.00 0.00 61 1021.2
20260505231639 31 50 1.6 3.2 0.00 0.00 0.00 62 1021.1
20260505231139 31 59 3.2 11.3 0.00 0.00 0.00 61 1021.1
20260505230636 31 47 1.6 4.8 0.00 0.00 0.00 61 1021.2
20260505230132 32 164 3.2 9.7 0.00 0.00 0.00 59 1021.2
20260505225629 32 127 4.8 6.4 0.00 0.00 0.00 57 1021.2
20260505225125 32 153 6.4 9.7 0.00 0.00 0.00 57 1021.2
20260505224622 32 188 1.6 3.2 0.00 0.00 0.00 56 1021.4
20260505224119 32 37 0.0 1.6 0.00 0.00 0.00 58 1021.2
20260505223616 31 41 0.0 3.2 0.00 0.00 0.00 59 1021.3
20260505223113 32 102 0.0 3.2 0.00 0.00 0.00 57 1021.3
20260505222609 32 135 1.6 3.2 0.00 0.00 0.00 57 1021.4
20260505222105 32 83 1.6 4.8 0.00 0.00 0.00 56 1021.3
20260505221602 32 144 0.0 3.2 0.00 0.00 0.00 55 1021.4
20260505221059 32 105 3.2 9.7 0.00 0.00 0.00 56 1021.4
20260505220556 32 354 1.6 1.6 0.00 0.00 0.00 57 1021.4
20260505220054 31 65 3.2 3.2 0.00 0.00 0.00 58 1021.5
20260505215552 31 142 3.2 4.8 0.00 0.00 0.00 59 1021.5
20260505215049 32 90 1.6 1.6 0.00 0.00 0.00 57 1021.7
20260505214548 32 62 0.0 3.2 0.00 0.00 0.00 58 1021.8
20260505214044 32 46 3.2 4.8 0.00 0.00 0.00 58 1021.8
20260505213542 32 220 3.2 6.4 0.00 0.00 0.00 58 1021.7
20260505213038 32 36 1.6 3.2 0.00 0.00 0.00 57 1021.8
20260505212534 32 184 3.2 4.8 0.00 0.00 0.00 58 1022.1
20260505212032 32 308 0.0 6.4 0.00 0.00 0.00 58 1022.1
20260505211529 31 40 0.0 3.2 0.00 0.00 0.00 58 1022.1
20260505211025 31 67 1.6 4.8 0.00 0.00 0.00 60 1022.2
20260505210522 31 140 3.2 4.8 0.00 0.00 0.00 59 1022.3
20260505210019 31 102 3.2 4.8 0.00 0.00 0.00 59 1022.3
20260505205517 31 130 3.2 4.8 0.00 0.00 0.00 59 1022.4
20260505205014 31 153 1.6 3.2 0.00 0.00 0.00 60 1022.4
20260505204512 30 63 1.6 4.8 0.00 0.00 0.00 62 1022.5
20260505204009 30 158 1.6 4.8 0.00 0.00 0.00 63 1022.7
20260505203505 30 18 0.0 3.2 0.00 0.00 0.00 61 1022.9
20260505203002 31 256 3.2 9.7 0.00 0.00 0.00 61 1022.8
20260505202458 31 58 1.6 4.8 0.00 0.00 0.00 60 1022.7
20260505201954 31 70 0.0 4.8 0.00 0.00 0.00 60 1022.9
20260505201451 30 142 3.2 6.4 0.00 0.00 0.00 62 1023.0
20260505200949 31 67 1.6 3.2 0.00 0.00 0.00 61 1023.1
20260505200447 30 42 1.6 3.2 0.00 0.00 0.00 63 1023.1
20260505195942 30 68 0.0 3.2 0.00 0.00 0.00 64 1023.1
20260505195440 30 141 3.2 6.4 0.00 0.00 0.00 64 1023.1
20260505194937 29 175 1.6 6.4 0.00 0.00 0.00 65 1023.3
20260505194434 29 81 1.6 3.2 0.00 0.00 0.00 67 1023.2
20260505193934 28 117 4.8 6.4 0.00 0.00 0.00 67 1023.5
20260505193432 28 88 1.6 4.8 0.00 0.00 0.00 67 1023.5
20260505192930 28 151 3.2 3.2 0.00 0.00 0.00 66 1023.5
20260505192428 29 157 1.6 4.8 0.00 0.00 0.00 66 1023.6
20260505191925 29 145 3.2 6.4 0.00 0.00 0.00 66 1023.5
20260505191424 28 218 1.6 3.2 0.00 0.00 0.00 68 1023.7
20260505190920 28 134 1.6 3.2 0.00 0.00 0.00 67 1023.9
20260505190415 28 181 1.6 4.8 0.00 0.00 0.00 67 1024.0
20260505185911 28 94 3.2 6.4 0.00 0.00 0.00 67 1024.0
20260505185408 28 140 1.6 3.2 0.00 0.00 0.00 68 1024.0
20260505184904 28 82 1.6 3.2 0.00 0.00 0.00 68 1024.1
20260505184401 28 62 1.6 3.2 0.00 0.00 0.00 70 1024.3
20260505183858 28 91 1.6 6.4 0.00 0.00 0.00 68 1024.1
20260505183355 28 137 1.6 4.8 0.00 0.00 0.00 69 1024.3
20260505182851 27 81 1.6 3.2 0.00 0.00 0.00 70 1024.4
20260505182348 27 176 1.6 4.8 0.00 0.00 0.00 71 1024.4
20260505181845 27 135 3.2 4.8 0.00 0.00 0.00 70 1024.5
20260505181342 27 292 1.6 4.8 0.00 0.00 0.00 71 1024.4
20260505180839 27 238 3.2 3.2 0.00 0.00 0.00 71 1024.5
20260505180335 27 205 3.2 4.8 0.00 0.00 0.00 71 1024.7
20260505175832 27 291 1.6 3.2 0.00 0.00 0.00 72 1024.4
20260505175328 27 192 1.6 9.7 0.00 0.00 0.00 72 1024.5
20260505174825 27 211 4.8 4.8 0.00 0.00 0.00 71 1024.5
20260505174323 27 123 3.2 4.8 0.00 0.00 0.00 72 1024.5
20260505173818 26 34 1.6 3.2 0.00 0.00 0.00 74 1024.6
20260505173315 26 82 1.6 4.8 0.00 0.00 0.00 75 1024.6
20260505172812 26 252 1.6 4.8 0.00 0.00 0.00 75 1024.9
20260505172310 26 59 1.6 3.2 0.00 0.00 0.00 76 1024.7
20260505171804 26 152 1.6 6.4 0.00 0.00 0.00 76 1024.8
20260505171301 25 99 0.0 4.8 0.00 0.00 0.00 77 1024.8
20260505170757 25 131 3.2 4.8 0.00 0.00 0.00 77 1025.0
20260505170255 25 198 4.8 6.4 0.00 0.00 0.00 77 1024.9
20260505165755 25 208 4.8 6.4 0.00 0.00 0.00 78 1024.8
20260505165251 25 231 1.6 4.8 0.00 0.00 0.00 79 1024.7
20260505164747 25 265 3.2 4.8 0.00 0.00 0.00 79 1024.9
20260505164244 25 91 3.2 4.8 0.00 0.00 0.00 79 1024.8
20260505163743 25 148 3.2 6.4 0.00 0.00 0.00 79 1024.8
20260505163241 25 281 0.0 9.7 0.00 0.00 0.00 80 1024.8
20260505162738 24 39 1.6 4.8 0.00 0.00 0.00 81 1024.8
20260505162235 24 252 3.2 6.4 0.00 0.00 0.00 81 1024.8
20260505161732 24 204 4.8 6.4 0.00 0.00 0.00 82 1024.7
20260505161230 23 188 1.6 12.9 0.00 0.00 0.00 83 1024.8
20260505160726 23 72 0.0 6.4 0.00 0.00 0.00 84 1024.8
20260505160225 23 128 4.8 12.9 0.00 0.00 0.00 83 1024.8
20260505153203 23 224 3.2 4.8 0.00 0.00 0.00 85 1024.6
20260505152700 23 110 3.2 4.8 0.00 0.00 0.00 86 1024.8
20260505152156 22 357 1.6 3.2 0.00 0.00 0.00 86 1024.8
20260505151651 22 66 1.6 4.8 0.00 0.00 0.00 86 1024.8
20260505151149 22 279 4.8 6.4 0.00 0.00 0.00 86 1025.0
20260505150645 22 153 1.6 9.7 0.00 0.00 0.00 87 1024.9
20260505150142 22 69 1.6 1.6 0.00 0.00 0.00 88 1024.7